TimeCST,TemperatureF,Dew PointF,Humidity,Sea Level PressureIn,VisibilityMPH,Wind Direction,Wind SpeedMPH,Gust SpeedMPH,PrecipitationIn,Events,Conditions,WindDirDegrees,DateUTC
12:56 AM,16.0,12.0,84,30.35,10.0,Calm,Calm,-,N/A,,Mostly Cloudy,0,2011-12-17 06:56:00
1:56 AM,17.1,12.9,84,30.32,10.0,Calm,Calm,-,N/A,,Overcast,0,2011-12-17 07:56:00
2:56 AM,16.0,12.9,88,30.31,10.0,NE,3.5,-,N/A,,Partly Cloudy,50,2011-12-17 08:56:00
3:56 AM,14.0,10.9,88,30.30,10.0,NNW,3.5,-,N/A,,Clear,340,2011-12-17 09:56:00
4:56 AM,15.1,12.0,88,30.29,9.0,Calm,Calm,-,N/A,,Mostly Cloudy,0,2011-12-17 10:56:00
5:56 AM,16.0,14.0,92,30.27,9.0,Calm,Calm,-,N/A,,Overcast,0,2011-12-17 11:56:00
6:56 AM,17.6,14.0,86,30.20,10.0,Calm,Calm,-,N/A,,Overcast,0,2011-12-17 12:56:00
7:09 AM,17.6,14.0,86,30.20,10.0,Calm,Calm,-,N/A,,Overcast,0,2011-12-17 13:09:00
7:56 AM,19.9,17.1,89,30.25,9.0,Calm,Calm,-,N/A,,Overcast,0,2011-12-17 13:56:00
8:56 AM,21.9,19.0,89,30.24,9.0,SSW,8.1,-,N/A,,Overcast,210,2011-12-17 14:56:00
9:16 AM,21.2,19.4,93,30.19,8.0,SW,6.9,-,N/A,,Overcast,220,2011-12-17 15:16:00
9:56 AM,23.0,21.0,92,30.22,8.0,SSW,8.1,-,N/A,,Overcast,210,2011-12-17 15:56:00
10:56 AM,24.1,21.0,88,30.21,7.0,SSW,8.1,-,N/A,,Overcast,200,2011-12-17 16:56:00
11:56 AM,25.0,21.0,85,30.17,7.0,SW,12.7,19.6,N/A,,Overcast,220,2011-12-17 17:56:00
12:56 PM,26.1,21.0,81,30.15,8.0,WSW,10.4,-,N/A,,Overcast,240,2011-12-17 18:56:00
1:56 PM,27.0,21.0,78,30.13,9.0,SW,12.7,-,N/A,,Overcast,230,2011-12-17 19:56:00
2:19 PM,26.6,21.2,80,30.07,9.0,SW,12.7,18.4,N/A,,Overcast,230,2011-12-17 20:19:00
2:56 PM,28.0,21.9,78,30.12,9.0,SW,8.1,-,N/A,,Overcast,220,2011-12-17 20:56:00
3:56 PM,28.9,23.0,78,30.12,9.0,SSW,8.1,-,N/A,,Overcast,210,2011-12-17 21:56:00
4:56 PM,28.0,23.0,81,30.11,10.0,SW,8.1,-,N/A,,Partly Cloudy,230,2011-12-17 22:56:00
5:56 PM,26.1,21.9,84,30.13,9.0,SW,5.8,-,N/A,,Clear,230,2011-12-17 23:56:00
6:56 PM,24.1,21.0,88,30.14,8.0,WSW,5.8,-,N/A,,Clear,240,2011-12-18 00:56:00
7:56 PM,23.0,21.0,92,30.14,7.0,WSW,5.8,-,N/A,,Clear,240,2011-12-18 01:56:00
8:56 PM,23.0,21.0,92,30.15,8.0,WSW,5.8,-,N/A,,Clear,240,2011-12-18 02:56:00
9:56 PM,21.9,19.9,92,30.15,8.0,WSW,6.9,-,N/A,,Clear,250,2011-12-18 03:56:00
10:56 PM,23.0,21.0,92,30.16,9.0,WSW,9.2,-,N/A,,Clear,250,2011-12-18 04:56:00
11:56 PM,21.9,19.9,92,30.17,9.0,WSW,4.6,-,N/A,,Clear,250,2011-12-18 05:56:00